Location: Goudie Road
(49.9333°N, 119.0750°W)
Time: 20:29:26
(UTC-08:00)

Daily predictions for brighter satellites

Satellite Brightness Start Highest point End
(mag) Time Altitude Azimuth Time Altitude Azimuth Time Altitude Azimuth
Meteor 1-18 Rocket 4.3 17:51:33 10° NNW 17:57:09 87° ENE 18:02:45 10° SSE
Cosmos 2322 Rocket 2.8 17:53:22 10° NNW 17:58:57 64° WSW 18:04:28 10° SSE
Cosmos 1709 Rocket 4.4 17:54:32 10° SSE 18:00:10 38° E 18:05:47 10° NNE
ATLAS 2AS CENTAUR R/B 4.3 17:54:41 10° WNW 18:01:43 31° N 18:08:45 10° NE
SJ-6B 3.3 17:58:39 10° SE 18:02:21 39° ENE 18:06:01 10° N
Cosmos 2151 Rocket 3.9 17:59:44 10° SSE 18:04:01 44° E 18:08:21 10° NNE
Okean 1 Rocket 4.4 18:01:47 10° SE 18:05:01 20° E 18:08:15 10° NE
USA 215 3.5 18:01:26 10° ENE 18:07:56 69° NNW 18:14:25 10° WSW
Meteor 1-20 Rocket 4.3 18:02:30 10° S 18:08:15 65° E 18:14:03 10° NNE
deb Kosmos-1763 4.1 18:05:45 10° SSW 18:09:30 65° ESE 18:13:17 10° NNE
FENGYUN 3A 4.0 18:07:04 10° SE 18:12:08 43° ENE 18:17:15 10° N
TSX-5 4.5 18:09:32 10° SSE 18:12:09 24° ESE 18:14:53 10° NE
BREEZE-M DEB (TANK) 2.2 18:10:15 10° W 18:12:22 50° SSW 18:16:00 10° ESE
Cosmos 1833 Rocket 4.4 18:07:27 10° WSW 18:12:26 31° NW 18:17:26 10° NNE
Cosmos 1238 Rocket 2.7 18:11:32 10° N 18:14:23 34° ENE 18:17:07 10° SE
Cosmos 2322 3.7 18:09:38 10° NNW 18:15:23 69° ENE 18:21:04 10° SE
NOSS 2-2 (D) 4.0 18:13:54 10° SW 18:18:05 69° NW 18:23:13 10° NE
Cosmos 1745 Rocket 4.2 18:11:57 10° S 18:18:17 83° W 18:24:35 10° N
Cosmos 1025 Rocket 4.1 18:15:42 10° NNE 18:19:20 25° ENE 18:22:56 10° SE
SKYMED 2 3.6 18:15:00 10° NNE 18:19:22 90° ESE 18:23:43 10° SSW
ATLAS CENTAUR R/B 3.7 18:18:26 10° WNW 18:21:41 20° NNW 18:24:46 10° NNE
NOAA 12 4.1 18:17:24 10° SSE 18:22:44 87° ENE 18:28:07 10° NNW
CZ-2D R/B 4.4 18:20:20 10° ESE 18:23:24 23° ENE 18:26:29 10° NNE
Cosmos 1386 Rocket 4.4 18:17:39 10° S 18:23:44 85° E 18:29:47 10° N
Meteor 1-13 Rocket 4.2 18:19:37 10° N 18:25:10 67° ENE 18:30:45 10° SSE
Okean 1-7 Rocket 4.2 18:22:01 10° N 18:26:14 36° ENE 18:30:24 10° SE
H-2A R/B 3.4 18:25:07 10° SE 18:28:27 32° ENE 18:31:49 10° N
Cosmos 1812 4.1 18:24:53 10° NNW 18:28:35 44° W 18:32:15 10° SSW
Okean 1 3.7 18:24:52 10° NNW 18:28:55 69° W 18:32:58 10° S
Cosmos 1536 3.8 18:25:48 10° SE 18:29:02 24° E 18:32:17 10° NE
COSMOS 2428 2.9 18:25:10 10° NNW 18:30:45 52° NE 18:36:18 10° SE
Cosmos 2237 4.3 18:25:20 10° NNW 18:31:04 64° ENE 18:36:44 10° SE
Cosmos 1633 2.9 18:28:20 10° SSE 18:31:52 44° E 18:35:24 10° NNE
Meteor 2-4 Rocket 3.8 18:28:20 10° N 18:33:48 51° ENE 18:39:05 10° SSE
METEOR-M 4.3 18:28:37 10° SSE 18:33:58 80° WSW 18:39:20 10° NNW
Cosmos 2237 Rocket 3.3 18:29:31 10° NNW 18:34:17 26° NE 18:37:44 15° E
Cosmos 1536 Rocket 3.8 18:30:02 10° NNW 18:34:31 76° W 18:38:59 10° S
ASTRO F (AKARI) 4.5 18:30:52 10° NNE 18:34:31 87° ESE 18:37:58 10° SSW
NOSS 2-2 (C) 4.4 18:31:18 10° WSW 18:35:28 53° NW 18:40:34 10° NE
SL-19 R/B 4.4 18:36:16 10° SSE 18:41:57 67° ENE 18:48:04 10° NNW
NOSS 0 Rocket 4.4 18:42:22 10° NNW 18:48:12 41° NE 18:52:27 18° ESE
Cosmos 1818 3.5 18:43:52 10° SSW 18:49:19 81° SE 18:54:49 10° NE
Cosmos 2360 Rocket 2.7 18:44:06 10° NNW 18:49:43 64° WSW 18:55:18 10° SSE
Cosmos 407 Rocket 3.8 18:44:34 10° SSW 18:49:49 73° WNW 18:55:11 10° NNE
Cosmos 2219 Rocket 2.5 18:46:03 10° NNW 18:51:26 45° NE 18:55:22 18° ESE
Cosmos 676 Rocket 4.0 18:49:18 10° SSW 18:54:30 89° WNW 18:59:47 10° NNE
Cosmos 2219 3.8 18:50:54 10° SSE 18:56:00 34° ESE 19:01:06 10° NE
Cosmos 1570 Rocket 3.9 18:51:47 10° NNW 18:57:03 85° ENE 19:02:18 10° SSE
Cosmos 1602 3.7 18:58:19 10° S 19:02:12 87° W 19:06:09 10° N
Meteor 1-11 Rocket 3.7 19:00:35 10° S 19:06:23 80° E 19:12:22 10° NNE
Resurs 01 Rocket 1.6 19:02:04 10° SSE 19:06:29 87° WSW 19:10:55 10° NNW
COSMO-SKYMED 1 4.4 19:03:23 10° N 19:07:16 32° WNW 19:11:09 10° SW
Cosmos 1300 Rocket 3.6 19:02:57 10° S 19:07:23 85° W 19:11:52 10° N
SL-16 R/B 3.5 19:03:14 10° NNW 19:07:42 23° NE 19:09:14 21° ENE
Cosmos 1140 Rocket 3.3 19:03:52 10° SSW 19:09:00 78° ESE 19:14:12 10° NNE
Spot 1 3.9 19:10:05 15° SSE 19:13:22 67° ENE 19:17:32 10° N
ALOS 2.9 19:11:51 10° S 19:16:27 57° W 19:21:05 10° NNW
Cosmos 614 Rocket 3.8 19:11:30 10° SSW 19:16:32 69° ESE 19:21:36 10° NNE
Cosmos 468 Rocket 4.1 19:12:07 10° NNW 19:17:15 53° ENE 19:19:38 30° ESE
Helios 1A 2.8 19:17:34 17° SSE 19:20:42 74° ENE 19:24:51 10° N
Cosmos 1833 4.3 19:17:24 10° SSW 19:23:06 78° WNW 19:28:47 10° NNE
Resurs 1-3 3.9 19:19:41 10° S 19:24:03 70° WSW 19:28:27 10° NNW
Spot 2 Rocket 3.8 19:19:04 10° S 19:24:06 66° WSW 19:29:10 10° NNW
Cosmos 2208 Rocket 4.4 19:18:43 10° NNW 19:24:09 66° WSW 19:29:30 10° S
Cosmos 2333 Rocket 2.2 19:19:55 10° NNW 19:25:39 63° ENE 19:28:17 32° SE
Cosmos 2327 Rocket 4.4 19:19:43 10° S 19:25:54 68° E 19:32:12 10° NNE
USA 186 2.2 19:27:25 45° N 19:27:25 45° N 19:29:34 10° N
CZ-4B DEB 3.7 19:29:29 36° N 19:29:29 36° N 19:31:31 10° N
Helios 1B rocket 2.9 19:24:29 10° NNE 19:30:53 23° SSE 19:32:34 10° S
Okean 2 3.3 19:28:17 10° N 19:32:29 84° E 19:34:27 31° SSE
Cosmos 1980 3.7 19:27:38 10° NNW 19:33:14 58° NE 19:35:02 40° ESE
Cosmos 1814 Rocket 4.0 19:29:50 10° NNW 19:34:57 56° ENE 19:36:04 46° ESE
SAR-Lupe-1 4.3 19:34:56 30° S 19:36:33 68° WSW 19:40:08 10° NNW
Cosmos 1850 Rocket 3.9 19:31:26 10° SSW 19:36:45 85° ESE 19:42:08 10° NNE
USA 229 DEB 3.9 19:29:48 10° NW 19:36:54 73° SW 19:42:02 21° SSE
USA 229 3.9 19:29:54 10° NW 19:37:00 74° SW 19:42:06 21° SSE
Envisat 2.9 19:38:53 43° SE 19:40:24 63° ENE 19:45:26 10° N
SAR-Lupe-4 4.4 19:39:05 19° S 19:41:26 50° WSW 19:44:58 10° NNW
Okean 1 Rocket 4.0 19:38:11 10° SSW 19:42:33 51° WNW 19:46:57 10° N
Cosmos 1892 Rocket 3.4 19:38:21 10° N 19:42:43 82° E 19:43:43 53° SSE
ERS-1 Rocket 3.3 19:45:24 46° ENE 19:45:24 46° ENE 19:50:05 10° N
Cosmos 2074 Rocket 4.0 19:39:06 10° S 19:45:21 85° W 19:51:43 10° N
Cosmos 2184 Rocket 4.0 19:42:10 10° S 19:48:30 84° W 19:54:48 10° N
NOSS 3-1 (A) 4.0 19:42:17 10° NW 19:49:32 65° NE 19:52:26 41° ESE
USA 215 3.9 19:47:08 27° NE 19:50:31 49° N 19:56:44 10° WNW
Meteor 1-5 Rocket 4.3 19:47:16 10° SSW 19:53:15 85° WNW 19:59:10 10° NNE
ATLAS 2AS CENTAUR R/B 3.8 19:47:27 10° NW 19:55:00 39° NNE 19:57:44 31° ENE
Cosmos 405 Rocket 3.0 19:51:03 10° NNW 19:55:09 70° W 19:55:33 64° SW
SPOT 5 4.2 19:57:10 27° NNE 19:57:10 27° NNE 20:00:07 10° N
Cosmos 1025 Rocket 4.4 19:52:59 10° NNW 19:57:05 40° W 20:01:11 10° SSW
Cosmos 1939 Rocket 3.7 20:00:51 43° N 20:00:51 43° N 20:03:37 10° NNW
ATLAS CENTAUR R/B 4.0 20:01:26 10° NNW 20:02:14 10° N 20:03:02 10° N
H-2A R/B 3.8 20:05:00 19° NNE 20:05:00 19° NNE 20:07:22 10° N
Nadezhda 3 Rocket 3.9 19:57:04 10° N 20:03:16 89° E 20:06:13 33° S
Gbstr 26 Del rocket 4.1 20:00:02 10° SW 20:02:04 30° SW 20:02:04 30° SW
GEOS 3 Rocket 3.6 20:01:57 39° NE 20:03:59 84° NW 20:09:16 10° SW
NOSS 3-1 (C) 3.9 20:01:46 10° NW 20:09:09 89° NE 20:11:48 48° SE
Cosmos 2341 Rocket 3.9 20:11:39 63° E 20:11:42 63° E 20:18:02 10° NNE
COSMOS 2428 4.3 20:09:51 10° NW 20:14:47 31° WSW 20:19:43 10° SSW
Cosmos 2154 Rocket 3.9 20:11:07 10° S 20:17:28 88° E 20:23:51 10° N
Cosmos 2237 Rocket 2.2 20:13:15 10° NNW 20:18:58 77° WSW 20:19:37 68° S
Cosmos 1066 Rocket 4.0 20:13:15 10° NNW 20:18:59 86° ENE 20:19:01 86° E
Cosmos 841 Rocket 3.7 20:16:51 10° NNW 20:21:09 61° N 20:21:09 61° N
ARGOS 4.2 20:32:29 35° NNE 20:32:29 35° NNE 20:35:48 10° N
Cosmos 1763 Rocket 3.9 20:30:12 10° NNW 20:34:33 60° WNW 20:34:33 60° WNW
Cosmos 2219 Rocket 3.4 20:30:13 10° NW 20:35:18 37° WSW 20:37:08 29° SW
Cosmos 2219 4.0 20:34:24 10° SW 20:39:59 50° NW 20:45:35 10° NNE
SL-16 R/B 2.8 20:46:53 10° NNW 20:51:08 52° NNW 20:51:08 52° NNW
Terra 4.4 21:13:16 13° N 21:13:16 13° N 21:13:45 10° N
Cosmos 2333 Rocket 3.9 21:04:50 10° NW 21:09:30 26° WSW 21:10:20 25° WSW
USA 215 4.0 21:34:29 48° NNW 21:34:29 48° NNW 21:39:24 10° WNW
H-2A R/B 4.2 21:45:37 22° NNW 21:45:37 22° NNW 21:47:33 10° NNW
ATLAS 2AS CENTAUR R/B 3.5 21:38:56 10° NW 21:45:11 57° NW 21:45:11 57° NW
